Погода в Няксимволе

Погода в Няксимволе : погода сейчас, прогноз погоды и архив. Всё, что Вы хотите узнать о погоде в Няксимволе!

Хотите узнать прогноз погоды в Няксимволе? Тогда Вам сюда: Погода в Няксимволе

Поиск расширенной информации на нашем сайте:

Другие новости

Новости СМИ2

Главная страница сайта

Новости сайта

03.07.2017

Напоминаем, что на нашем специализированном сайте Метеоцентр.Азия вы можете получить высокодетализированные автоматические прогнозы погоды по пунктам России, СНГ и мира в авиационном формате (включающие направление и скорость ветра, видимость, явления погоды, количество и форму облачности, нижнюю и верхнюю границу облачности).


Погода в Няксимволе - сегодня

Время (UTC), дата Ветер
(°,м/с) 
Видим.   Явления Облачность Т
(°С)
Тd
(°С)
f(%) Тe
(°С)
Pmin
(гПа)
dP
(гПа)
Po
(мм)
O2
(г/м3)
Тmin Tmax R s Состояние
почвы
12 20.09.17 040 (СВ) 20000 м  слаб. дождь  10/10 600 м 
[Frnb|Ns]
+6 +4.2 88 +5  1016.3  1.5  758  298           
15 20.09.17 040 (СВ) 20000 м  слаб. морось{дождь}  10/10 300 м 
[St]
+5.8 +4.3 90 +5  1018.2  1.8  759  299    +6.1  10     
18 20.09.17 050 (СВ) 20000 м  {дождь, морось}  10/10 300 м 
[St]
+5.5 +4 90 +4  1020.2  760  300           
21 20.09.17 010 (С) 20000 м    10/10 300 м 
[St]
+5.5 +4 90 +6  1022.1  1.9  762  300           
00 21.09.17 340 (С) 20000 м    10/10 300 м 
[St]
+5.3 +4 91 +5  1023.8  1.7  763  301           
03 21.09.17 010 (С) 20000 м    10/10 300 м 
[St]
+5.5 +3.8 89 +4  1025.9  765  301  +5    0.4    влажная 
06 21.09.17 350 (С) 20000 м    10/10 300 м 
[St]
+5.9 +3.5 85 +6  1027.4  1.6  766  302           
09 21.09.17 300 (СЗ) 20000 м    5/5 1000 м 
[Sc]
+8.3 +3.4 71 +8  1027.7  0.3  766  299           
12 21.09.17 280 (З) 20000 м    6/3 1000 м верхняя 
[Sc|Cs]
+10.4 +0.5 50 +11  1027.6  0.1  766  297           
15 21.09.17 тихо ()   20000 м    6/6 1000 м 
[Sc]
+3.7 +2.4 91 +4  1027.9  0.2  766  304    +10.6       
18 21.09.17 310 (СЗ) 20000 м    10/10 1000 м 
[Sc]
+4.9 +2.2 83 +4  1029  1.1  767  303           
21 21.09.17 350 (С) 20000 м    10/10 1000 м 
[Sc]
+5.3 +1.3 75 +5  1030.7  1.7  768  303           
00 22.09.17 340 (С) 20000 м    8/6 1000 м верхняя 
[Sc|Ci fib]
+3.8 +1.2 83 +3  1032.3  1.5  769  306           
03 22.09.17 тихо ()   20000 м    10/10 1000 м 
[Sc]
+3.5 +1.5 87 +4  1033.6  1.2  770  306  +3.3        влажная 
06 22.09.17 230 (ЮЗ) 20000 м    10/10 1000 м 
[Sc]
+5.3 +2 79 +6  1034.2  0.6  771  304           
09 22.09.17 230 (ЮЗ) 20000 м    10/10 1000 м 
[Sc]
+7.6 +1.1 63 +9  1033.8  -0.3  771  302           
12 22.09.17 тихо ()   20000 м    8/8 1000 м 
[Sc]
+7.5 +2.1 69 +8  1033.8  771  302           
15 22.09.17 310 (СЗ) 20000 м  слаб. дождь  10/10 1000 м 
[Sc]
+5.5 +3.3 86 +6  1033.7  0.1  770  304    +8.1  0.0     
18 22.09.17 310 (СЗ) 20000 м  {дождь}  8/8 1000 м 
[Sc]
+3.9 +1.2 83 +5  1034.1  0.3  771  306           
21 22.09.17 тихо ()   20000 м    8/8 1000 м 
[Sc]
+2.8 +1.3 90 +3  1034  0.1  771  307           
00 23.09.17 тихо ()   20000 м    8/8 1000 м 
[Sc]
-0.3 -1.3 93 -0  1034.1  771  311           
03 23.09.17 310 (СЗ) 20000 м    8/6 1000 м верхняя 
[Sc|Ci fib]
-0.4 -1.2 94 1033.9  -0.2  770  311  -1.9        влажная 
06 23.09.17 320 (СЗ) 20000 м    9/0 верхняя 
[Cc]
+6.1 +1.2 71 +6  1032.9  -0.8  770  303           
09 23.09.17 тихо ()   20000 м    10/10 1000 м 
[Sc]
+7.6 +0.5 61 +8  1031.8  -1  767  301           
12 23.09.17 350 (С) 20000 м    10/10 1000 м 
[Sc]
+7.3 +2.1 70 +8  1031.8  -1  769  302           
Время (UTC), дата Ветер
(°,м/с) 
Видим.   Явления Облачность Т
(°С)
Тd
(°С)
f(%) Тe
(°С)
Pmin
(гПа)
dP
(гПа)
Po
(мм)
O2
(г/м3)
Тmin Tmax R s Состояние
почвы

Для получения пояснительной информации подведите курсор к названию столбца.

ПОГОДА в Няксимволе - архив

Всё, что Вы хотите узнать о погоде в Няксимволе - удобно и подробно!

Выберите нужную дату (начиная с 1 января 2015* года) и нажмите кнопку "Найти".
Будут отображены архивные сводки погоды по пункту Няксимволь, начиная с указанной даты.


Отображать данные в формате CSV (для использования в таблицах Excel)


Внимание! Наш архив погоды предназначен исключительно для личного некоммерческого использования в познавательных целях. Если Вам необходимы официальные справки о состоянии погоды (для производственных, юридических, коммерческих и т.п. целей), обращайтесь в органы Росгидромета.

*Примечание: данная дата относится к архиву по метеостанциям СССР (Россия, СНГ, Балтия).
Архив по метеостанциям Зарубежной Европы и Азии (кроме Китая) хранится 10 дней, по другим регионам земного шара (Китай, Африка, Америка, Австралия, Океания) - 1 день.

Няксимволь - район местоположения метеостанции


Название, широта, долгота, высота метеостанции:
Няксимволь 62.4°ш. 60.9°д. 51 м над ур. моря [Российская Федерация]

Дополнительная информация

В oтличие oт бoльшинства пoгoдных сайтoв мы публикуем пoдрoбную метеoинфoрмацию в детальнoм прoфессиoнальнoм фoрмате.

Характеристики температуры и влажнoсти вoздуха измеряются на высoте 2 м в тени вдали oт зданий и деревьев.
Скoрoсть ветра измеряется на высoте 10 м (на урoвне рoста челoвека скoрoсть ветра ниже в 1.5-2 раза). Если метеoстанция нахoдится в гoрoде или в лесу, тo скoрoсть ветра занижена на 2-4 м/с пo сравнению с oткрытым местoм. Скoрoсть ветра над акватoриями крупных рек и oзёр, а также на вершинах хoлмoв на 2-5 м/с выше, чем в oбычных услoвиях.
Атмoсфернoе давление в разных тoчках местнoсти мoжет значительнo oтличаться oт давления на метеoстанции, в зависимoсти oт услoвий рельефа (при пoдъёме на 10 м давление пoнижается примернo на 1 мм рт.ст.).